La Crosse, WI

8:07 PM CDT on May 23, 2017 (GMT -0500)
La Crosse Municipal

Weather History for KLSE - December, 2011

Change the Weather History Date:

Wednesday, December 28, 2011

  Actual Average Record
Temperature  
Mean Temperature 28 °F 18 °F  
Max Temperature 36 °F 26 °F 60 °F (1984)
Min Temperature 20 °F 11 °F -25 °F (1880)
Degree Days  
Heating Degree Days 37 47  
Month to date heating degree days 1037 1203  
Since 1 July heating degree days 2338 2703  
Cooling Degree Days 0 0  
Month to date cooling degree days 0 0  
Year to date cooling degree days 922 782  
Moisture  
Dew Point 18 °F    
Average Humidity 65    
Maximum Humidity 77    
Minimum Humidity 52    
Precipitation  
Precipitation 0.00 in 0.04 in 0.62 in (1966)
Month to date precipitation 1.28 1.26  
Year to date precipitation 34.97 32.96  
Snow  
Snow 0.00 in 0.40 in 8.60 in (1966)
Month to date snowfall 3.6 10.4  
Since 1 July snowfall 4.3 14.7  
Snow Depth 0.00 in    
Sea Level Pressure  
Sea Level Pressure 29.93 in    
Wind  
Wind Speed 8 mph (SE)    
Max Wind Speed 15 mph    
Max Gust Speed 18 mph    
Visibility 10 miles    
Events      
T = Trace of Precipitation, MM = Missing Value Source: NWS Daily Summary

Daily Weather History Graph

Daily Weather History Graph

Search for Another Location

Airport or City:

Trip Planner

Search our weather history database for the weather conditions in past years. The results will help you decide how hot, cold, wet, or windy it might be!

Date:

Astronomy

Dec. 28, 2011 Rise Set
Actual Time 7:38 AM CST 4:34 PM CST
Civil Twilight 7:05 AM CST 5:07 PM CST
Nautical Twilight 6:29 AM CST 5:43 PM CST
Astronomical Twilight 5:54 AM CST 6:18 PM CST
Moon 9:56 AM CST (12/28) 9:20 PM CST (12/28)
Length of Visible Light 10h 01m
Length of Day
8h 55m
Waxing Crescent, 18% of the Moon is Illuminated
Dec 28
Waxing Crescent
Jan 1
First Quarter
Jan 9
Full
Jan 16
Last Quarter
Jan 23
New

Hourly Weather History & Observations

Time (CST) Temp. Windchill Dew Point Humidity Pressure Visibility Wind Dir Wind Speed Gust Speed Precip Events Conditions
12:53 AM 23.0 °F 17.0 °F 15.1 °F 72% 30.08 in 10.0 mi East 4.6 mph - N/A   Mostly Cloudy
1:53 AM 21.2 °F 14.9 °F 14.0 °F 74% 30.03 in 10.0 mi ESE 4.6 mph - N/A   Clear
2:53 AM 21.9 °F 15.7 °F 12.9 °F 68% 30.07 in 10.0 mi East 4.6 mph - N/A   Mostly Cloudy
3:53 AM 21.0 °F 16.2 °F 12.9 °F 71% 30.06 in 10.0 mi ESE 3.5 mph - N/A   Clear
4:53 AM 21.0 °F 13.4 °F 14.0 °F 74% 30.04 in 10.0 mi ESE 5.8 mph - N/A   Overcast
5:53 AM 19.9 °F 13.4 °F 12.9 °F 74% 30.07 in 10.0 mi ESE 4.6 mph - N/A   Overcast
6:53 AM 19.9 °F 12.1 °F 14.0 °F 78% 30.06 in 10.0 mi East 5.8 mph - N/A   Overcast
7:53 AM 21.0 °F 12.4 °F 15.1 °F 78% 30.05 in 10.0 mi ESE 6.9 mph - N/A   Overcast
8:53 AM 23.0 °F 15.8 °F 16.0 °F 74% 30.05 in 10.0 mi ESE 5.8 mph - N/A   Overcast
9:53 AM 26.1 °F 16.8 °F 16.0 °F 66% 30.05 in 10.0 mi SE 9.2 mph - N/A   Overcast
10:53 AM 28.0 °F 19.3 °F 17.1 °F 63% 30.01 in 10.0 mi SSE 9.2 mph - N/A   Overcast
11:53 AM 30.9 °F 21.7 °F 17.1 °F 57% 29.96 in 10.0 mi SSE 11.5 mph - N/A   Clear
12:53 PM 33.1 °F 23.4 °F 19.0 °F 56% 29.92 in 10.0 mi South 13.8 mph - N/A   Clear
1:53 PM 34.0 °F 27.2 °F 19.0 °F 54% 29.89 in 10.0 mi South 8.1 mph - N/A   Clear
2:53 PM 36.0 °F 27.1 °F 19.0 °F 50% 29.86 in 10.0 mi SSE 13.8 mph - N/A   Scattered Clouds
3:53 PM 35.1 °F 26.9 °F 19.9 °F 54% 29.86 in 10.0 mi South 11.5 mph - N/A   Clear
4:53 PM 33.1 °F 24.9 °F 19.9 °F 59% 29.86 in 10.0 mi South 10.4 mph - N/A   Clear
5:53 PM 30.2 °F 23.4 °F 21.2 °F 69% 29.82 in 10.0 mi SSE 6.9 mph - N/A   Clear
6:53 PM 32.0 °F 24.2 °F 21.9 °F 66% 29.84 in 10.0 mi SSE 9.2 mph - N/A   Clear
7:53 PM 32.0 °F 24.2 °F 23.0 °F 69% 29.81 in 10.0 mi SSE 9.2 mph - N/A   Clear
8:53 PM 30.9 °F 24.3 °F 23.0 °F 72% 29.78 in 10.0 mi South 6.9 mph - N/A   Clear
9:53 PM 32.0 °F 24.2 °F 24.1 °F 73% 29.76 in 10.0 mi South 9.2 mph - N/A   Partly Cloudy
10:53 PM 32.0 °F 23.6 °F 25.0 °F 75% 29.73 in 10.0 mi South 10.4 mph - N/A   Scattered Clouds
11:53 PM 30.9 °F 26.2 °F 25.0 °F 79% 29.70 in 10.0 mi SSW 4.6 mph - N/A   Overcast